QPF
0.00 0.00 0.00 0.00 0.00 0.00 0.01 0.03 0.07 0.06 0.01 0.00 0.00 0.00 0.01 0.00 0.01 0.02 0.02 0.01 0.03 0.04 0.05 0.05 0.05 0.04 0.04 0.04 0.04 0.05 0.05 0.05 0.05 0.05 0.06 0.17 0.40 0.74
0.00 0.00 0.00 0.00 0.00 0.00 0.01 0.02 0.04 0.07 0.05 0.00 0.00 0.00 0.00 0.01 0.01 0.02 0.01 0.01 0.02 0.02 0.03 0.03 0.04 0.04 0.03 0.03 0.03 0.03 0.04 0.04 0.05 0.05 0.05 0.10 0.27 0.57
0.00 0.00 0.00 0.00 0.00 0.00 0.01 0.02 0.03 0.04 0.05 0.01 0.00 0.00 0.00 0.00 0.00 0.01 0.01 0.01 0.01 0.01 0.01 0.02 0.02 0.03 0.03 0.03 0.03 0.03 0.03 0.03 0.04 0.05 0.05 0.07 0.17 0.36
0.00 0.00 0.00 0.00 0.01 0.01 0.02 0.02 0.01 0.02 0.04 0.03 0.00 0.00 0.00 0.00 0.00 0.00 0.01 0.01 0.01 0.00 0.01 0.01 0.02 0.02 0.02 0.02 0.02 0.02 0.02 0.02 0.03 0.04 0.04 0.04 0.09 0.25
0.00 0.00 0.01 0.01 0.01 0.01 0.01 0.01 0.02 0.02 0.03 0.04 0.01 0.00 0.00 0.00 0.00 0.00 0.00 0.00 0.00 0.00 0.00 0.00 0.01 0.02 0.02 0.02 0.02 0.02 0.01 0.01 0.01 0.02 0.03 0.03 0.05 0.15
0.00 0.01 0.01 0.01 0.01 0.02 0.02 0.03 0.04 0.05 0.04 0.03 0.02 0.00 0.00 0.00 0.00 0.00 0.00 0.00 0.00 0.00 0.00 0.00 0.00 0.01 0.01 0.01 0.02 0.02 0.01 0.01 0.01 0.02 0.03 0.03 0.03 0.07
0.01 0.01 0.01 0.02 0.03 0.05 0.08 0.08 0.09 0.08 0.05 0.04 0.02 0.01 0.00 0.00 0.00 0.00 0.00 0.00 0.00 0.00 0.00 0.00 0.00 0.00 0.00 0.00 0.01 0.01 0.01 0.01 0.01 0.01 0.02 0.03 0.03 0.04
0.02 0.01 0.01 0.01 0.01 0.02 0.03 0.05 0.07 0.09 0.08 0.05 0.03 0.01 0.00 0.00 0.00 0.00 0.01 0.01 0.01 0.00 0.00 0.00 0.00 0.00 0.00 0.00 0.00 0.00 0.01 0.01 0.01 0.01 0.01 0.02 0.03 0.03
0.00 0.00 0.00 0.00 0.00 0.00 0.01 0.02 0.02 0.02 0.03 0.04 0.03 0.01 0.01 0.00 0.01 0.01 0.01 0.02 0.01 0.00 0.01 0.00 0.00 0.00 0.00 0.00 0.00 0.00 0.01 0.01 0.01 0.01 0.01 0.01 0.02 0.03
0.00 0.00 0.00 0.00 0.00 0.03 0.08 0.05 0.02 0.01 0.00 0.01 0.02 0.02 0.02 0.03 0.05 0.05 0.03 0.02 0.01 0.00 0.01 0.01 0.00 0.00 0.00 0.00 0.00 0.00 0.00 0.01 0.01 0.01 0.01 0.01 0.01 0.02
0.00 0.00 0.00 0.00 0.01 0.07 0.09 0.06 0.02 0.01 0.00 0.01 0.02 0.02 0.03 0.03 0.05 0.06 0.03 0.01 0.01 0.00 0.01 0.02 0.01 0.00 0.00 0.00 0.00 0.00 0.00 0.00 0.01 0.01 0.01 0.01 0.01 0.02
0.00 0.00 0.00 0.01 0.03 0.06 0.06 0.04 0.02 0.02 0.01 0.01 0.01 0.01 0.01 0.01 0.01 0.02 0.02 0.02 0.01 0.01 0.01 0.01 0.01 0.01 0.01 0.00 0.00 0.00 0.00 0.00 0.01 0.01 0.01 0.01 0.02 0.02
0.01 0.00 0.00 0.01 0.03 0.04 0.03 0.02 0.03 0.04 0.03 0.01 0.00 0.00 0.00 0.00 0.00 0.01 0.01 0.03 0.03 0.01 0.00 0.01 0.01 0.01 0.02 0.01 0.00 0.00 0.00 0.00 0.01 0.01 0.01 0.01 0.02 0.02
0.01 0.00 0.00 0.02 0.03 0.02 0.01 0.01 0.03 0.03 0.01 0.00 0.00 0.00 0.00 0.00 0.00 0.01 0.01 0.02 0.02 0.02 0.01 0.02 0.03 0.02 0.03 0.02 0.01 0.01 0.01 0.01 0.01 0.01 0.01 0.01 0.02 0.03
0.00 0.01 0.01 0.01 0.01 0.01 0.00 0.01 0.01 0.00 0.00 0.00 0.00 0.00 0.01 0.01 0.01 0.01 0.01 0.01 0.01 0.01 0.01 0.02 0.03 0.03 0.04 0.03 0.02 0.01 0.02 0.02 0.01 0.01 0.01 0.01 0.02 0.02
0.00 0.00 0.00 0.00 0.00 0.00 0.00 0.00 0.00 0.00 0.01 0.01 0.01 0.01 0.01 0.01 0.01 0.01 0.01 0.01 0.01 0.01 0.01 0.02 0.03 0.04 0.04 0.02 0.03 0.02 0.02 0.02 0.02 0.02 0.02 0.02 0.02 0.02
0.01 0.01 0.00 0.00 0.00 0.00 0.00 0.00 0.00 0.00 0.00 0.00 0.01 0.01 0.01 0.01 0.01 0.01 0.02 0.02 0.03 0.02 0.02 0.02 0.03 0.03 0.03 0.03 0.03 0.03 0.03 0.02 0.02 0.02 0.02 0.03 0.03 0.03
0.01 0.00 0.00 0.00 0.00 0.00 0.00 0.00 0.00 0.00 0.00 0.01 0.01 0.01 0.01 0.01 0.01 0.01 0.02 0.02 0.03 0.03 0.04 0.04 0.04 0.04 0.04 0.04 0.03 0.03 0.03 0.03 0.02 0.03 0.03 0.04 0.04 0.04
0.00 0.00 0.00 0.00 0.00 0.00 0.00 0.01 0.01 0.00 0.01 0.01 0.01 0.01 0.01 0.01 0.02 0.02 0.02 0.03 0.03 0.03 0.04 0.05 0.06 0.07 0.06 0.04 0.04 0.03 0.03 0.03 0.03 0.04 0.04 0.03 0.04 0.03
0.00 0.00 0.00 0.00 0.00 0.00 0.00 0.01 0.01 0.01 0.01 0.01 0.01 0.01 0.01 0.02 0.02 0.02 0.03 0.03 0.04 0.03 0.04 0.06 0.08 0.09 0.07 0.06 0.06 0.05 0.05 0.05 0.04 0.04 0.04 0.04 0.04 0.07
0.00 0.00 0.00 0.00 0.00 0.00 0.01 0.01 0.01 0.01 0.01 0.01 0.01 0.01 0.01 0.02 0.02 0.03 0.03 0.03 0.04 0.04 0.05 0.05 0.06 0.09 0.10 0.09 0.08 0.06 0.05 0.06 0.06 0.05 0.06 0.05 0.06 0.11
0.00 0.00 0.00 0.00 0.00 0.00 0.01 0.01 0.01 0.01 0.01 0.01 0.01 0.01 0.01 0.02 0.02 0.03 0.04 0.04 0.04 0.05 0.06 0.07 0.07 0.09 0.10 0.09 0.08 0.07 0.07 0.07 0.07 0.08 0.09 0.09 0.07 0.09
0.00 0.00 0.00 0.00 0.00 0.00 0.01 0.01 0.01 0.01 0.01 0.01 0.01 0.01 0.01 0.02 0.02 0.03 0.04 0.04 0.04 0.05 0.07 0.07 0.08 0.10 0.11 0.11 0.10 0.08 0.08 0.09 0.08 0.09 0.11 0.11 0.09 0.07
MSLP
1023.97 1023.98 1023.91 1023.69 1023.30 1022.72 1021.96 1021.06 1020.09 1019.10 1018.16 1017.30 1016.55 1015.89 1015.29 1014.68 1014.02 1013.26 1012.38 1011.39 1010.32 1009.24 1008.21 1007.31 1006.58 1006.03 1005.68 1005.46 1005.32 1005.18 1004.98 1004.68 1004.25 1003.71 1003.11 1002.50 1001.99 1001.65
1022.86 1022.84 1022.73 1022.48 1022.06 1021.46 1020.71 1019.84 1018.90 1017.97 1017.10 1016.31 1015.64 1015.05 1014.50 1013.95 1013.34 1012.62 1011.78 1010.83 1009.80 1008.76 1007.78 1006.91 1006.20 1005.68 1005.32 1005.11 1004.96 1004.83 1004.64 1004.36 1003.96 1003.45 1002.87 1002.28 1001.75 1001.36
1021.70 1021.62 1021.45 1021.14 1020.69 1020.07 1019.33 1018.48 1017.61 1016.75 1015.96 1015.27 1014.68 1014.18 1013.71 1013.22 1012.67 1012.00 1011.22 1010.32 1009.34 1008.35 1007.39 1006.54 1005.84 1005.30 1004.92 1004.68 1004.52 1004.38 1004.20 1003.96 1003.61 1003.17 1002.66 1002.13 1001.64 1001.24
1020.52 1020.37 1020.13 1019.76 1019.27 1018.64 1017.90 1017.10 1016.29 1015.51 1014.81 1014.22 1013.72 1013.30 1012.91 1012.49 1012.00 1011.39 1010.67 1009.82 1008.89 1007.93 1007.00 1006.15 1005.43 1004.86 1004.44 1004.15 1003.95 1003.79 1003.64 1003.44 1003.17 1002.84 1002.44 1002.01 1001.59 1001.22
1019.35 1019.13 1018.82 1018.41 1017.88 1017.24 1016.52 1015.76 1015.01 1014.32 1013.71 1013.20 1012.79 1012.44 1012.11 1011.75 1011.32 1010.77 1010.10 1009.31 1008.43 1007.50 1006.58 1005.73 1004.97 1004.35 1003.86 1003.51 1003.26 1003.08 1002.94 1002.80 1002.63 1002.42 1002.16 1001.86 1001.54 1001.23
1018.20 1017.93 1017.57 1017.12 1016.57 1015.93 1015.24 1014.54 1013.85 1013.23 1012.70 1012.26 1011.92 1011.63 1011.35 1011.04 1010.65 1010.15 1009.53 1008.79 1007.95 1007.05 1006.15 1005.28 1004.49 1003.80 1003.24 1002.81 1002.50 1002.29 1002.15 1002.05 1001.97 1001.88 1001.76 1001.60 1001.41 1001.19
1017.08 1016.77 1016.39 1015.92 1015.37 1014.76 1014.11 1013.46 1012.84 1012.29 1011.82 1011.44 1011.14 1010.89 1010.64 1010.36 1010.01 1009.55 1008.97 1008.27 1007.48 1006.61 1005.72 1004.84 1004.02 1003.28 1002.64 1002.13 1001.75 1001.48 1001.32 1001.25 1001.23 1001.24 1001.24 1001.22 1001.15 1001.02
1015.99 1015.67 1015.28 1014.83 1014.30 1013.73 1013.14 1012.55 1012.00 1011.51 1011.09 1010.76 1010.48 1010.25 1010.01 1009.75 1009.41 1008.97 1008.43 1007.78 1007.03 1006.21 1005.34 1004.47 1003.62 1002.83 1002.13 1001.54 1001.08 1000.74 1000.54 1000.45 1000.46 1000.52 1000.62 1000.69 1000.72 1000.69
1014.92 1014.62 1014.25 1013.83 1013.35 1012.83 1012.31 1011.79 1011.30 1010.87 1010.50 1010.19 1009.93 1009.69 1009.45 1009.18 1008.85 1008.44 1007.93 1007.33 1006.63 1005.86 1005.04 1004.19 1003.34 1002.52 1001.77 1001.11 1000.56 1000.15 999.88 999.74 999.72 999.80 999.92 1000.06 1000.16 1000.21
1013.90 1013.62 1013.29 1012.91 1012.50 1012.05 1011.60 1011.15 1010.73 1010.35 1010.01 1009.71 1009.45 1009.20 1008.95 1008.67 1008.33 1007.93 1007.46 1006.90 1006.26 1005.56 1004.80 1004.00 1003.18 1002.36 1001.58 1000.87 1000.25 999.75 999.39 999.17 999.08 999.11 999.22 999.36 999.50 999.60
1012.92 1012.68 1012.40 1012.09 1011.74 1011.37 1010.99 1010.61 1010.24 1009.91 1009.59 1009.30 1009.03 1008.76 1008.48 1008.17 1007.83 1007.44 1006.98 1006.48 1005.91 1005.28 1004.60 1003.87 1003.10 1002.32 1001.55 1000.81 1000.13 999.56 999.10 998.78 998.60 998.54 998.58 998.68 998.81 998.92
1012.02 1011.83 1011.60 1011.35 1011.08 1010.77 1010.46 1010.14 1009.82 1009.51 1009.21 1008.92 1008.63 1008.33 1008.02 1007.68 1007.32 1006.92 1006.49 1006.03 1005.52 1004.97 1004.38 1003.73 1003.05 1002.33 1001.59 1000.86 1000.16 999.52 998.98 998.55 998.26 998.09 998.03 998.06 998.15 998.25
1011.20 1011.07 1010.91 1010.72 1010.51 1010.27 1010.01 1009.73 1009.45 1009.16 1008.86 1008.56 1008.24 1007.91 1007.56 1007.19 1006.80 1006.39 1005.96 1005.52 1005.07 1004.59 1004.08 1003.53 1002.94 1002.30 1001.62 1000.92 1000.23 999.56 998.96 998.44 998.04 997.76 997.59 997.53 997.55 997.63
1010.48 1010.42 1010.33 1010.21 1010.04 1009.85 1009.63 1009.38 1009.12 1008.83 1008.53 1008.21 1007.86 1007.49 1007.10 1006.69 1006.26 1005.83 1005.40 1004.96 1004.53 1004.10 1003.66 1003.19 1002.68 1002.13 1001.53 1000.89 1000.23 999.56 998.93 998.36 997.88 997.50 997.23 997.08 997.03 997.06
1009.87 1009.89 1009.87 1009.80 1009.68 1009.52 1009.32 1009.09 1008.83 1008.54 1008.22 1007.88 1007.51 1007.11 1006.67 1006.22 1005.75 1005.28 1004.81 1004.36 1003.92 1003.51 1003.10 1002.68 1002.25 1001.77 1001.25 1000.68 1000.07 999.43 998.81 998.21 997.68 997.24 996.90 996.67 996.56 996.54
1009.36 1009.47 1009.51 1009.49 1009.41 1009.27 1009.07 1008.84 1008.57 1008.27 1007.95 1007.59 1007.19 1006.76 1006.30 1005.80 1005.28 1004.76 1004.24 1003.74 1003.27 1002.83 1002.41 1002.01 1001.60 1001.18 1000.72 1000.21 999.67 999.09 998.50 997.91 997.37 996.90 996.52 996.24 996.08 996.04
1008.93 1009.12 1009.23 1009.25 1009.19 1009.06 1008.86 1008.62 1008.34 1008.04 1007.70 1007.33 1006.93 1006.48 1006.00 1005.46 1004.90 1004.32 1003.73 1003.16 1002.61 1002.11 1001.64 1001.20 1000.79 1000.38 999.95 999.50 999.01 998.49 997.95 997.41 996.89 996.43 996.04 995.75 995.57 995.51
1008.56 1008.82 1008.98 1009.04 1008.99 1008.85 1008.65 1008.40 1008.11 1007.80 1007.47 1007.11 1006.72 1006.28 1005.78 1005.23 1004.63 1003.98 1003.32 1002.66 1002.01 1001.41 1000.85 1000.33 999.86 999.42 998.98 998.55 998.10 997.64 997.16 996.68 996.22 995.79 995.44 995.16 994.99 994.93
1008.19 1008.52 1008.72 1008.79 1008.75 1008.61 1008.40 1008.14 1007.86 1007.56 1007.24 1006.90 1006.54 1006.12 1005.63 1005.08 1004.45 1003.76 1003.03 1002.27 1001.51 1000.78 1000.09 999.46 998.89 998.38 997.91 997.46 997.03 996.60 996.18 995.76 995.37 995.01 994.70 994.47 994.34 994.30
1007.81 1008.18 1008.40 1008.48 1008.44 1008.30 1008.08 1007.82 1007.54 1007.26 1006.98 1006.68 1006.36 1005.98 1005.53 1004.99 1004.36 1003.63 1002.83 1001.98 1001.11 1000.25 999.43 998.66 997.97 997.35 996.80 996.32 995.87 995.46 995.08 994.72 994.40 994.11 993.87 993.71 993.63 993.65
1007.38 1007.77 1008.00 1008.09 1008.04 1007.89 1007.67 1007.41 1007.15 1006.90 1006.66 1006.41 1006.14 1005.82 1005.42 1004.91 1004.29 1003.55 1002.71 1001.79 1000.81 999.83 998.87 997.97 997.14 996.40 995.76 995.20 994.72 994.31 993.95 993.63 993.37 993.15 992.99 992.90 992.90 992.98
1006.90 1007.29 1007.52 1007.59 1007.54 1007.38 1007.16 1006.92 1006.68 1006.46 1006.26 1006.07 1005.86 1005.60 1005.25 1004.80 1004.20 1003.47 1002.61 1001.64 1000.59 999.51 998.43 997.40 996.44 995.59 994.83 994.19 993.65 993.21 992.84 992.55 992.33 992.17 992.09 992.08 992.15 992.32
1006.36 1006.73 1006.95 1007.01 1006.95 1006.79 1006.58 1006.35 1006.14 1005.95 1005.79 1005.65 1005.50 1005.30 1005.01 1004.60 1004.05 1003.35 1002.49 1001.50 1000.41 999.26 998.09 996.96 995.89 994.92 994.06 993.32 992.71 992.21 991.82 991.53 991.32 991.21 991.19 991.25 991.41 991.67
Thickness
5286 5271 5255 5242 5227 5212 5198 5184 5173 5176 5185 5179 5169 5164 5158 5157 5158 5161 5167 5176 5189 5206 5226 5247 5269 5294 5320 5347 5376 5405 5435 5466 5496 5524 5551 5578 5603 5625
5282 5267 5253 5240 5227 5213 5200 5188 5175 5167 5172 5175 5168 5164 5159 5157 5157 5159 5163 5172 5184 5198 5216 5237 5258 5282 5308 5334 5363 5393 5423 5453 5482 5510 5538 5564 5589 5612
5279 5266 5253 5240 5227 5215 5203 5191 5180 5170 5168 5175 5168 5165 5160 5158 5158 5159 5162 5169 5180 5194 5210 5229 5250 5273 5297 5324 5352 5381 5410 5439 5468 5496 5524 5550 5576 5600
5278 5264 5252 5240 5228 5216 5205 5194 5184 5175 5168 5170 5171 5166 5162 5159 5159 5160 5163 5169 5178 5191 5207 5225 5245 5267 5290 5316 5343 5370 5399 5428 5456 5484 5512 5539 5563 5585
5276 5263 5252 5239 5229 5218 5208 5198 5189 5181 5174 5170 5171 5168 5165 5162 5161 5162 5165 5169 5177 5189 5204 5221 5240 5261 5284 5309 5334 5361 5390 5419 5447 5475 5500 5525 5550 5573
5276 5264 5252 5240 5231 5221 5212 5203 5194 5185 5178 5173 5172 5171 5168 5165 5162 5163 5167 5172 5178 5188 5201 5216 5234 5255 5278 5302 5328 5355 5382 5408 5435 5463 5489 5515 5539 5561
5276 5264 5253 5243 5234 5225 5217 5208 5197 5189 5183 5178 5175 5172 5170 5167 5164 5164 5167 5173 5181 5189 5199 5214 5231 5252 5272 5295 5320 5347 5374 5400 5427 5453 5479 5504 5529 5552
5278 5267 5255 5244 5235 5228 5220 5212 5202 5193 5186 5180 5176 5172 5170 5167 5166 5167 5169 5174 5183 5191 5198 5214 5229 5248 5269 5291 5315 5340 5366 5393 5419 5445 5471 5496 5520 5542
5278 5266 5255 5245 5237 5226 5218 5211 5203 5194 5189 5183 5177 5173 5170 5169 5168 5170 5173 5177 5183 5190 5197 5215 5230 5247 5267 5289 5312 5336 5361 5386 5412 5438 5463 5488 5512 5534
5276 5264 5253 5243 5233 5226 5219 5212 5202 5194 5189 5184 5179 5176 5175 5174 5172 5174 5177 5181 5187 5193 5199 5212 5229 5246 5266 5287 5309 5333 5357 5381 5406 5431 5456 5481 5504 5525
5275 5264 5253 5243 5236 5231 5223 5213 5203 5196 5191 5187 5185 5181 5180 5178 5177 5177 5178 5182 5189 5196 5202 5211 5227 5242 5263 5286 5307 5330 5353 5376 5401 5425 5449 5473 5495 5516
5274 5263 5254 5246 5239 5232 5222 5211 5203 5197 5191 5185 5182 5179 5176 5174 5176 5175 5174 5177 5184 5192 5202 5209 5221 5234 5256 5280 5302 5323 5345 5370 5394 5418 5443 5466 5488 5508
5274 5263 5253 5246 5239 5232 5223 5211 5204 5200 5191 5184 5180 5178 5176 5175 5175 5176 5176 5178 5183 5191 5200 5207 5218 5229 5243 5266 5292 5315 5337 5361 5386 5412 5437 5460 5482 5503
5273 5263 5253 5246 5239 5230 5221 5212 5207 5199 5188 5183 5179 5178 5177 5177 5178 5179 5181 5183 5188 5194 5201 5207 5217 5227 5238 5255 5278 5306 5330 5354 5378 5404 5429 5453 5476 5498
5272 5263 5255 5246 5237 5226 5217 5211 5204 5192 5186 5182 5180 5179 5178 5179 5180 5182 5185 5189 5194 5200 5206 5212 5219 5229 5239 5253 5272 5293 5316 5345 5369 5395 5420 5445 5469 5492
5270 5260 5253 5243 5233 5224 5215 5205 5197 5191 5186 5182 5180 5179 5179 5180 5182 5185 5188 5192 5198 5205 5211 5217 5224 5232 5243 5255 5269 5289 5308 5331 5361 5386 5410 5437 5463 5487
5267 5256 5245 5236 5227 5219 5211 5203 5197 5191 5185 5182 5180 5179 5180 5182 5184 5187 5190 5194 5198 5205 5213 5220 5228 5236 5247 5257 5271 5289 5307 5329 5352 5375 5401 5430 5458 5483
5267 5253 5243 5234 5225 5217 5210 5203 5196 5191 5186 5182 5180 5179 5180 5182 5185 5189 5192 5196 5201 5207 5214 5221 5228 5239 5251 5265 5277 5292 5309 5328 5349 5371 5396 5424 5453 5480
5264 5251 5241 5232 5224 5216 5208 5201 5196 5191 5186 5182 5181 5179 5180 5182 5185 5190 5194 5198 5203 5209 5216 5223 5229 5238 5251 5266 5284 5297 5311 5328 5347 5370 5394 5422 5452 5478
5260 5249 5239 5231 5223 5215 5208 5202 5196 5192 5187 5184 5181 5180 5180 5182 5186 5190 5195 5199 5205 5212 5219 5226 5232 5240 5251 5264 5280 5299 5312 5327 5347 5371 5395 5420 5444 5468
5258 5248 5239 5230 5222 5215 5208 5202 5196 5192 5189 5185 5183 5181 5181 5183 5187 5191 5196 5201 5207 5213 5220 5229 5237 5245 5254 5264 5279 5298 5316 5331 5348 5369 5392 5415 5437 5460
5257 5247 5238 5230 5222 5214 5207 5202 5197 5193 5190 5186 5184 5183 5183 5185 5188 5193 5197 5202 5208 5214 5222 5232 5241 5250 5259 5271 5285 5301 5318 5334 5349 5367 5388 5413 5438 5463
5257 5247 5238 5230 5222 5214 5207 5202 5197 5195 5191 5188 5186 5186 5185 5187 5191 5195 5199 5205 5211 5218 5226 5236 5246 5256 5266 5277 5290 5304 5320 5335 5351 5369 5390 5414 5439 5464